Weather History for Syracuse, NY

Change the Weather History Date:

Wednesday, March 28, 2012

  Actual Average Record
Temperature  
Mean Temperature 53 °F 39 °F  
Max Temperature 66 °F 48 °F 84 °F (1945)
Min Temperature 39 °F 29 °F 3 °F (1923)
Degree Days  
Heating Degree Days 12 26  
Month to date heating degree days 491 881  
Since 1 July heating degree days 4357 5712  
Cooling Degree Days 0 0  
Month to date cooling degree days 1 0  
Year to date cooling degree days 1 0  
Growing Degree Days 2 (Base 50)    
Moisture  
Dew Point 35 °F    
Average Humidity 54    
Maximum Humidity 83    
Minimum Humidity 25    
Precipitation  
Precipitation 0.10 in 0.10 in 1.01 in (1919)
Month to date precipitation 1.91 2.64  
Year to date precipitation 7.20 7.21  
Snow  
Snow 0.00 in 0.40 in 5.70 in (1955)
Month to date snowfall 7.2 17.2  
Since 1 July snowfall 50.6 119.1  
Snow Depth 0.00 in    
Sea Level Pressure  
Sea Level Pressure 29.68 in    
Wind  
Wind Speed 11 mph (NE)    
Max Wind Speed 26 mph    
Max Gust Speed 33 mph    
Visibility 10 miles    
Events Rain    
T = Trace of Precipitation, MM = Missing Value Source: NWS Daily Summary

Daily Weather History Graph

Daily Weather History Graph

Search for Another Location

Airport:

Trip Planner

Search our weather history database for the weather conditions in past years. The results will help you decide how hot, cold, wet, or windy it might be!

Date:

Astronomy

Mar. 28, 2012 Rise Set
Actual Time 6:52 AM EDT 7:26 PM EDT
Civil Twilight 6:24 AM EDT 7:55 PM EDT
Nautical Twilight 5:50 AM EDT 8:29 PM EDT
Astronomical Twilight 5:15 AM EDT 9:04 PM EDT
Moon 9:59 AM EDT (3/28) 12:34 AM EDT (3/28)
Length of Visible Light 13h 31m
Length of Day
12h 34m
Waxing Crescent, 30% of the Moon is Illuminated
Mar 28
Waxing Crescent
Mar 30
First Quarter
Apr 6
Full
Apr 13
Last Quarter
Apr 21
New

Hourly Weather History & Observations

Time (EDT) Temp. Windchill Dew Point Humidity Pressure Visibility Wind Dir Wind Speed Gust Speed Precip Events Conditions
12:54 AM 39.0 °F 33.4 °F 16.0 °F 39% 29.94 in 10.0 mi ESE 8.1 mph - N/A   Overcast
1:54 AM 39.9 °F 35.8 °F 17.1 °F 40% 29.91 in 10.0 mi ESE 5.8 mph - N/A   Overcast
2:54 AM 46.9 °F - 12.0 °F 24% 29.87 in 10.0 mi South 3.5 mph - N/A   Overcast
3:54 AM 39.9 °F 35.1 °F 18.0 °F 41% 29.86 in 10.0 mi East 6.9 mph - N/A   Overcast
4:54 AM 42.1 °F 36.1 °F 21.0 °F 43% 29.82 in 10.0 mi East 10.4 mph - N/A   Overcast
5:54 AM 39.0 °F 32.8 °F 28.9 °F 67% 29.80 in 8.0 mi East 9.2 mph - 0.02 in Rain Light Rain
6:54 AM 39.9 °F 32.9 °F 30.9 °F 70% 29.74 in 10.0 mi ESE 11.5 mph - 0.00 in   Overcast
7:54 AM 39.9 °F 33.4 °F 34.0 °F 79% 29.72 in 9.0 mi ESE 10.4 mph - 0.05 in Rain Light Rain
8:54 AM 44.1 °F 39.5 °F 36.0 °F 73% 29.67 in 10.0 mi ESE 8.1 mph - 0.00 in   Overcast
9:54 AM 45.0 °F 41.2 °F 37.0 °F 74% 29.64 in 10.0 mi East 6.9 mph - 0.00 in   Overcast
10:54 AM 51.1 °F - 39.9 °F 66% 29.61 in 10.0 mi East 6.9 mph - N/A   Scattered Clouds
11:54 AM 59.0 °F - 42.1 °F 53% 29.57 in 10.0 mi East 4.6 mph - N/A   Scattered Clouds
12:54 PM 63.0 °F - 43.0 °F 48% 29.53 in 10.0 mi East 6.9 mph - N/A   Mostly Cloudy
1:54 PM 62.1 °F - 43.0 °F 50% 29.50 in 10.0 mi NNE 6.9 mph - N/A   Mostly Cloudy
2:54 PM 61.0 °F - 42.1 °F 50% 29.51 in 10.0 mi North 6.9 mph - N/A   Mostly Cloudy
3:54 PM 66.0 °F - 44.1 °F 45% 29.51 in 10.0 mi NNW 21.9 mph 29.9 mph N/A   Overcast
4:54 PM 63.0 °F - 43.0 °F 48% 29.52 in 10.0 mi NW 13.8 mph 29.9 mph N/A   Overcast
5:54 PM 57.9 °F - 44.1 °F 60% 29.57 in 10.0 mi NNW 12.7 mph - N/A   Overcast
6:54 PM 55.0 °F - 41.0 °F 59% 29.61 in 10.0 mi NNW 11.5 mph 21.9 mph N/A   Overcast
7:54 PM 50.0 °F - 44.1 °F 80% 29.65 in 7.0 mi WNW 13.8 mph 21.9 mph 0.00 in Rain Light Rain
8:54 PM 48.0 °F - 43.0 °F 83% 29.68 in 10.0 mi WNW 12.7 mph 20.7 mph 0.01 in Rain Light Rain
9:54 PM 45.0 °F 37.4 °F 39.9 °F 82% 29.69 in 10.0 mi WNW 18.4 mph 25.3 mph 0.00 in Rain Light Rain
10:54 PM 45.0 °F 37.9 °F 39.0 °F 80% 29.70 in 10.0 mi NW 16.1 mph 23.0 mph 0.00 in Rain Light Rain
11:54 PM 44.1 °F 37.4 °F 39.0 °F 82% 29.70 in 10.0 mi NW 13.8 mph 25.3 mph 0.01 in Rain Light Rain